Location: Bothwell
(42.3833°S, 147.0000°E)
Time: 11:05:03
(UTC+11:00)

TIGRISAT - Pass Details

Date: 04 October 2023
Orbit: 598 x 676 km, 97.7° (Epoch: 29 November)

Event Time Altitude Azimuth Distance (km) Brightness Sun altitude
Rises 05:51:03 0° 159° (SSE) 3,040 ? -10.0°
Reaches altitude 10° 05:53:30 10° 150° (SSE) 2,106 ? -9.6°
Maximum altitude 05:57:42 35° 84° (E) 1,072 ? -8.8°
Drops below altitude 10° 06:01:42 10° 18° (NNE) 2,014 ? -8.1°
Sets 06:04:04 0° 8° (N) 2,917 ? -7.7°
